GW4073 Weather Reports


Display with metric or nautical units.
time (UTC)temp
F
wind
direction
speed
MPH
gust
MPH
rain 1hr
in
rain 24hr
in
rain mn
in
humidity
%
barometer
mb
20260508214605 85 288 2.0 3.0 0.00 0.00 0.00 18 1011.1
20260508214101 85 278 4.0 7.0 0.00 0.00 0.00 18 1011.5
20260508213558 86 271 4.0 6.0 0.00 0.00 0.00 19 1011.2
20260508213054 86 288 5.0 5.0 0.00 0.00 0.00 21 1011.5
20260508212551 85 256 4.0 9.0 0.00 0.00 0.00 22 1011.4
20260508212048 84 233 3.0 7.0 0.00 0.00 0.00 21 1011.5
20260508211543 86 243 4.0 5.0 0.00 0.00 0.00 19 1011.6
20260508211040 84 287 2.0 6.0 0.00 0.00 0.00 20 1011.4
20260508210536 84 332 4.0 9.0 0.00 0.00 0.00 20 1011.6
20260508210034 86 266 3.0 4.0 0.00 0.00 0.00 20 1011.6
20260508205530 82 283 5.0 11.0 0.00 0.00 0.00 21 1011.5
20260508205026 84 184 3.0 6.0 0.00 0.00 0.00 21 1011.5
20260508204524 84 119 9.0 10.0 0.00 0.00 0.00 21 1011.7
20260508204020 86 235 2.0 6.0 0.00 0.00 0.00 22 1011.7
20260508203516 85 247 6.0 6.0 0.00 0.00 0.00 20 1011.6
20260508203012 84 285 4.0 5.0 0.00 0.00 0.00 21 1011.8
20260508202509 83 292 3.0 7.0 0.00 0.00 0.00 20 1012.1
20260508202006 85 288 4.0 4.0 0.00 0.00 0.00 22 1011.8
20260508201503 83 130 1.0 5.0 0.00 0.00 0.00 18 1011.9
20260508200959 85 299 3.0 4.0 0.00 0.00 0.00 19 1011.9
20260508200456 84 245 3.0 6.0 0.00 0.00 0.00 18 1011.9
20260508195951 82 301 3.0 6.0 0.00 0.00 0.00 18 1011.9
20260508195449 82 330 3.0 5.0 0.00 0.00 0.00 17 1012.3
20260508194944 82 330 4.0 7.0 0.00 0.00 0.00 21 1012.4
20260508194442 84 36 3.0 3.0 0.00 0.00 0.00 23 1012.2
20260508193939 82 296 5.0 9.0 0.00 0.00 0.00 25 1012.3
20260508193435 81 164 5.0 9.0 0.00 0.00 0.00 20 1012.1
20260508192932 83 276 2.0 8.0 0.00 0.00 0.00 23 1012.3
20260508192429 83 184 3.0 4.0 0.00 0.00 0.00 23 1012.2
20260508191925 81 253 3.0 8.0 0.00 0.00 0.00 24 1012.4
20260508191422 81 190 4.0 12.0 0.00 0.00 0.00 21 1012.7
20260508190919 82 193 8.0 13.0 0.00 0.00 0.00 21 1012.7
20260508190416 80 159 2.0 10.0 0.00 0.00 0.00 22 1012.7
20260508185912 82 255 3.0 5.0 0.00 0.00 0.00 23 1012.5
20260508185410 81 217 3.0 7.0 0.00 0.00 0.00 23 1012.5
20260508184907 81 197 3.0 9.0 0.00 0.00 0.00 21 1012.9
20260508184404 82 178 4.0 7.0 0.00 0.00 0.00 20 1012.9
20260508183901 80 289 2.0 7.0 0.00 0.00 0.00 22 1012.9
20260508183358 81 282 4.0 11.0 0.00 0.00 0.00 25 1012.8
20260508182848 80 180 9.0 10.0 0.00 0.00 0.00 20 1013.0
20260508182345 79 167 4.0 8.0 0.00 0.00 0.00 22 1013.5
20260508181841 79 176 8.0 10.0 0.00 0.00 0.00 22 1013.5
20260508181338 78 266 2.0 11.0 0.00 0.00 0.00 24 1013.1
20260508180835 79 236 4.0 8.0 0.00 0.00 0.00 24 1013.2
20260508180331 79 321 3.0 7.0 0.00 0.00 0.00 24 1013.1
20260508175827 78 159 1.0 10.0 0.00 0.00 0.00 24 1013.1
20260508175324 79 351 4.0 6.0 0.00 0.00 0.00 22 1013.6
20260508174823 79 233 3.0 7.0 0.00 0.00 0.00 23 1013.5
20260508174320 79 253 3.0 6.0 0.00 0.00 0.00 25 1013.2
20260508173815 78 276 2.0 6.0 0.00 0.00 0.00 25 1013.5
20260508173313 77 244 3.0 9.0 0.00 0.00 0.00 21 1013.5
20260508172809 77 146 7.0 9.0 0.00 0.00 0.00 22 1013.6
20260508172307 77 279 4.0 7.0 0.00 0.00 0.00 24 1013.2
20260508171803 78 309 1.0 6.0 0.00 0.00 0.00 22 1013.4
20260508171259 77 266 3.0 5.0 0.00 0.00 0.00 25 1013.5
20260508170755 77 274 3.0 5.0 0.00 0.00 0.00 23 1013.6
20260508170254 76 288 4.0 6.0 0.00 0.00 0.00 25 1013.5
20260508165750 75 134 1.0 4.0 0.00 0.00 0.00 25 1013.6
20260508165247 74 248 3.0 5.0 0.00 0.00 0.00 28 1013.8
20260508164737 74 311 2.0 4.0 0.00 0.00 0.00 27 1013.5
20260508164234 73 258 3.0 6.0 0.00 0.00 0.00 28 1013.6
20260508163733 73 290 3.0 5.0 0.00 0.00 0.00 27 1013.6
20260508163230 72 260 2.0 4.0 0.00 0.00 0.00 28 1013.9
20260508162725 72 303 4.0 5.0 0.00 0.00 0.00 28 1013.6
20260508162222 71 285 2.0 4.0 0.00 0.00 0.00 30 1013.7
20260508161719 71 291 2.0 3.0 0.00 0.00 0.00 30 1013.8
20260508161217 71 308 2.0 3.0 0.00 0.00 0.00 28 1013.7
20260508160714 69 302 2.0 3.0 0.00 0.00 0.00 30 1013.8
20260508160213 69 269 0.0 3.0 0.00 0.00 0.00 29 1013.7
20260508155709 68 244 2.0 3.0 0.00 0.00 0.00 29 1013.9
20260508155206 68 234 2.0 3.0 0.00 0.00 0.00 28 1013.9
20260508154703 67 241 2.0 2.0 0.00 0.00 0.00 31 1014.1
20260508154200 66 16 2.0 2.0 0.00 0.00 0.00 32 1013.8
20260508153656 65 310 2.0 2.0 0.00 0.00 0.00 36 1013.9
20260508153154 65 276 0.0 3.0 0.00 0.00 0.00 36 1013.8
20260508152650 65 275 0.0 2.0 0.00 0.00 0.00 38 1013.8
20260508152146 64 278 1.0 2.0 0.00 0.00 0.00 39 1013.9
20260508151642 63 180 0.0 2.0 0.00 0.00 0.00 40 1013.8
20260508151139 61 325 0.0 2.0 0.00 0.00 0.00 47 1013.8
20260508150636 61 343 0.0 2.0 0.00 0.00 0.00 48 1014.1
20260508150133 60 228 0.0 1.0 0.00 0.00 0.00 43 1013.8
20260508145629 59 322 0.0 1.0 0.00 0.00 0.00 44 1014.1
20260508145125 60 53 0.0 2.0 0.00 0.00 0.00 44 1013.9
20260508144623 56 214 0.0 2.0 0.00 0.00 0.00 46 1013.8
20260508144120 56 27 2.0 2.0 0.00 0.00 0.00 48 1014.1
20260508143618 55 127 1.0 3.0 0.00 0.00 0.00 51 1014.1
20260508143114 52 49 0.0 2.0 0.00 0.00 0.00 55 1013.8
20260508142611 50 206 1.0 2.0 0.00 0.00 0.00 60 1013.9
20260508142108 50 316 0.0 0.0 0.00 0.00 0.00 58 1013.8
20260508141604 49 138 0.0 2.0 0.00 0.00 0.00 55 1013.6
20260508141102 47 99 2.0 3.0 0.00 0.00 0.00 57 1013.7
20260508140559 46 163 1.0 2.0 0.00 0.00 0.00 58 1013.7
20260508140055 44 191 2.0 2.0 0.00 0.00 0.00 65 1013.7
20260508135545 43 284 0.0 1.0 0.00 0.00 0.00 68 1013.7
20260508135042 43 124 0.0 0.0 0.00 0.00 0.00 65 1013.5
20260508134538 43 170 0.0 2.0 0.00 0.00 0.00 61 1013.5
20260508134036 42 44 0.0 2.0 0.00 0.00 0.00 65 1013.6
20260508133532 39 114 2.0 3.0 0.00 0.00 0.00 67 1013.5
20260508133030 38 82 2.0 3.0 0.00 0.00 0.00 70 1013.4
20260508132528 37 247 3.0 3.0 0.00 0.00 0.00 70 1013.4
20260508132024 36 163 2.0 3.0 0.00 0.00 0.00 73 1013.5
20260508131519 36 134 2.0 3.0 0.00 0.00 0.00 73 1013.1
20260508131016 36 289 1.0 1.0 0.00 0.00 0.00 74 1012.9
20260508130514 36 190 2.0 2.0 0.00 0.00 0.00 79 1013.0
20260508130009 35 134 0.0 2.0 0.00 0.00 0.00 78 1012.9
20260508125505 35 251 2.0 3.0 0.00 0.00 0.00 78 1012.9
20260508125003 35 203 0.0 2.0 0.00 0.00 0.00 77 1012.8
20260508124501 35 211 2.0 3.0 0.00 0.00 0.00 77 1012.7
20260508123958 35 151 2.0 2.0 0.00 0.00 0.00 75 1012.8
20260508123456 36 168 2.0 2.0 0.00 0.00 0.00 73 1013.0
20260508122952 36 258 1.0 4.0 0.00 0.00 0.00 75 1012.8
20260508122450 36 180 2.0 2.0 0.00 0.00 0.00 75 1013.0
20260508121946 36 147 0.0 2.0 0.00 0.00 0.00 73 1013.0
20260508121445 36 197 2.0 2.0 0.00 0.00 0.00 73 1012.8
20260508120942 36 184 0.0 3.0 0.00 0.00 0.00 74 1012.9
20260508120439 36 218 0.0 3.0 0.00 0.00 0.00 77 1012.8
20260508115937 36 190 0.0 2.0 0.00 0.00 0.00 76 1012.5
20260508115435 37 228 1.0 2.0 0.00 0.00 0.00 74 1012.8
20260508114931 37 101 4.0 6.0 0.00 0.00 0.00 68 1012.5
20260508114428 37 135 1.0 4.0 0.00 0.00 0.00 74 1012.7
20260508113924 37 211 1.0 2.0 0.00 0.00 0.00 74 1012.9
20260508113423 37 280 0.0 2.0 0.00 0.00 0.00 76 1012.7
20260508112919 38 228 2.0 2.0 0.00 0.00 0.00 73 1012.7
20260508112416 38 144 2.0 3.0 0.00 0.00 0.00 71 1012.8
20260508111912 38 164 0.0 2.0 0.00 0.00 0.00 74 1012.8
20260508111409 39 193 0.0 2.0 0.00 0.00 0.00 69 1012.8
20260508110907 38 125 0.0 2.0 0.00 0.00 0.00 70 1012.8
20260508110404 38 114 1.0 1.0 0.00 0.00 0.00 72 1012.8
20260508105858 38 140 3.0 3.0 0.00 0.00 0.00 71 1012.8
20260508105355 39 193 0.0 1.0 0.00 0.00 0.00 68 1013.0
20260508104852 39 169 0.0 0.0 0.00 0.00 0.00 70 1012.9
20260508104349 39 130 2.0 3.0 0.00 0.00 0.00 69 1012.8
20260508103847 39 113 0.0 3.0 0.00 0.00 0.00 71 1012.9
20260508103343 39 136 0.0 1.0 0.00 0.00 0.00 70 1013.0
20260508102841 39 141 0.0 1.0 0.00 0.00 0.00 71 1012.7
20260508102339 40 166 0.0 1.0 0.00 0.00 0.00 68 1012.7
20260508101836 40 166 1.0 2.0 0.00 0.00 0.00 63 1012.9
20260508101333 41 133 0.0 1.0 0.00 0.00 0.00 62 1012.8
20260508100831 41 60 0.0 0.0 0.00 0.00 0.00 63 1012.9
20260508100329 41 166 0.0 2.0 0.00 0.00 0.00 61 1012.8
20260508095824 41 124 0.0 1.0 0.00 0.00 0.00 62 1012.8
20260508095322 41 162 0.0 1.0 0.00 0.00 0.00 61 1012.8
20260508094818 42 55 0.0 0.0 0.00 0.00 0.00 62 1012.9
20260508094310 42 250 0.0 1.0 0.00 0.00 0.00 62 1012.5
20260508093807 42 124 0.0 1.0 0.00 0.00 0.00 59 1012.8
20260508093305 42 228 0.0 2.0 0.00 0.00 0.00 60 1012.8
20260508092802 43 224 0.0 2.0 0.00 0.00 0.00 57 1012.9
20260508092300 44 127 0.0 5.0 0.00 0.00 0.00 58 1012.8
20260508091758 44 142 1.0 1.0 0.00 0.00 0.00 55 1012.8
20260508091254 45 120 1.0 4.0 0.00 0.00 0.00 52 1012.7
20260508090752 45 64 0.0 4.0 0.00 0.00 0.00 54 1012.9
20260508090250 46 71 2.0 4.0 0.00 0.00 0.00 50 1012.9
20260508085745 45 47 2.0 4.0 0.00 0.00 0.00 52 1013.0
20260508085242 44 326 1.0 2.0 0.00 0.00 0.00 53 1013.1
20260508084737 44 76 0.0 0.0 0.00 0.00 0.00 53 1012.9
20260508084235 45 218 0.0 0.0 0.00 0.00 0.00 54 1013.0
20260508083732 47 213 1.0 3.0 0.00 0.00 0.00 51 1012.8
20260508083230 48 53 2.0 4.0 0.00 0.00 0.00 44 1012.9
20260508082725 49 60 4.0 6.0 0.00 0.00 0.00 44 1013.0
20260508082223 49 73 5.0 9.0 0.00 0.00 0.00 44 1013.0
20260508081720 49 74 6.0 8.0 0.00 0.00 0.00 43 1013.0
20260508081216 49 66 5.0 9.0 0.00 0.00 0.00 44 1013.2
20260508080714 49 59 6.0 9.0 0.00 0.00 0.00 43 1013.0
20260508080212 50 69 4.0 6.0 0.00 0.00 0.00 43 1012.9
20260508075708 50 56 4.0 7.0 0.00 0.00 0.00 42 1013.0
20260508075205 50 66 5.0 8.0 0.00 0.00 0.00 42 1013.0
20260508074702 50 67 5.0 8.0 0.00 0.00 0.00 42 1013.0
20260508074200 50 66 4.0 10.0 0.00 0.00 0.00 42 1013.0
20260508073656 50 58 7.0 7.0 0.00 0.00 0.00 42 1013.1
20260508073155 50 54 8.0 9.0 0.00 0.00 0.00 41 1013.0
20260508072650 50 57 6.0 7.0 0.00 0.00 0.00 41 1013.0
20260508072147 50 61 6.0 7.0 0.00 0.00 0.00 42 1013.1
20260508071645 51 80 4.0 9.0 0.00 0.00 0.00 41 1013.0
20260508071143 51 77 5.0 8.0 0.00 0.00 0.00 41 1013.0
20260508070640 51 69 4.0 9.0 0.00 0.00 0.00 41 1013.2
20260508070139 51 84 5.0 10.0 0.00 0.00 0.00 41 1013.0
20260508065635 51 61 7.0 12.0 0.00 0.00 0.00 41 1013.1
20260508065133 51 64 6.0 10.0 0.00 0.00 0.00 41 1013.0
20260508064631 52 50 6.0 10.0 0.00 0.00 0.00 40 1013.1
20260508064129 52 87 4.0 11.0 0.00 0.00 0.00 40 1013.0
20260508063626 52 45 5.0 8.0 0.00 0.00 0.00 39 1012.7
20260508063124 52 66 6.0 9.0 0.00 0.00 0.00 40 1013.0
20260508062621 52 59 8.0 9.0 0.00 0.00 0.00 39 1013.0
20260508062118 53 68 4.0 9.0 0.00 0.00 0.00 39 1012.8
20260508061615 53 55 6.0 8.0 0.00 0.00 0.00 38 1013.0
20260508061112 53 64 5.0 7.0 0.00 0.00 0.00 39 1012.9
20260508060604 53 62 3.0 7.0 0.00 0.00 0.00 39 1013.0
20260508055556 53 81 2.0 5.0 0.00 0.00 0.00 39 1013.0
20260508055053 53 68 3.0 6.0 0.00 0.00 0.00 39 1012.5
20260508054549 52 71 2.0 3.0 0.00 0.00 0.00 43 1012.7
20260508054047 53 54 2.0 4.0 0.00 0.00 0.00 41 1012.9
20260508053543 53 102 3.0 3.0 0.00 0.00 0.00 41 1012.9
20260508053042 53 105 2.0 4.0 0.00 0.00 0.00 42 1012.9
20260508052539 52 94 2.0 4.0 0.00 0.00 0.00 44 1012.9
20260508052035 52 39 2.0 2.0 0.00 0.00 0.00 45 1012.8
20260508051532 52 88 3.0 3.0 0.00 0.00 0.00 45 1012.8
20260508051027 51 86 2.0 3.0 0.00 0.00 0.00 48 1012.9
20260508050524 51 58 3.0 4.0 0.00 0.00 0.00 48 1012.8
20260508050021 51 105 3.0 3.0 0.00 0.00 0.00 49 1013.1
20260508045517 51 98 2.0 2.0 0.00 0.00 0.00 51 1012.9
20260508045015 52 72 2.0 2.0 0.00 0.00 0.00 49 1012.9
20260508044513 52 98 2.0 3.0 0.00 0.00 0.00 48 1013.1
20260508044008 53 45 2.0 3.0 0.00 0.00 0.00 47 1012.9
20260508043504 53 106 2.0 3.0 0.00 0.00 0.00 46 1012.9
20260508043000 53 77 2.0 3.0 0.00 0.00 0.00 46 1012.5
20260508042459 53 51 2.0 3.0 0.00 0.00 0.00 44 1012.9
20260508041955 53 89 0.0 3.0 0.00 0.00 0.00 44 1012.9
20260508041452 53 106 2.0 3.0 0.00 0.00 0.00 43 1012.9
20260508040949 54 283 0.0 1.0 0.00 0.00 0.00 44 1013.1
20260508040446 55 121 1.0 2.0 0.00 0.00 0.00 43 1012.8
20260508035944 55 29 0.0 2.0 0.00 0.00 0.00 42 1012.9
20260508035440 56 58 2.0 3.0 0.00 0.00 0.00 41 1012.7
20260508034937 56 66 0.0 3.0 0.00 0.00 0.00 41 1012.8
20260508034435 56 66 0.0 2.0 0.00 0.00 0.00 41 1012.8
20260508033931 56 64 1.0 2.0 0.00 0.00 0.00 39 1012.8
20260508033429 57 84 2.0 3.0 0.00 0.00 0.00 38 1012.5
20260508032926 57 23 1.0 2.0 0.00 0.00 0.00 38 1012.7
20260508032424 58 356 1.0 3.0 0.00 0.00 0.00 37 1012.4
20260508031920 58 52 2.0 2.0 0.00 0.00 0.00 36 1012.7
20260508031418 59 44 2.0 4.0 0.00 0.00 0.00 34 1012.5
20260508030913 60 37 2.0 3.0 0.00 0.00 0.00 32 1012.3
20260508030411 60 65 2.0 3.0 0.00 0.00 0.00 34 1012.3
20260508025908 60 26 1.0 3.0 0.00 0.00 0.00 32 1012.3
20260508025404 61 73 2.0 3.0 0.00 0.00 0.00 33 1012.1
20260508024901 62 67 2.0 2.0 0.00 0.00 0.00 32 1012.2
20260508024358 63 60 1.0 2.0 0.00 0.00 0.00 33 1012.2
20260508023855 64 57 2.0 2.0 0.00 0.00 0.00 32 1012.2
20260508023351 64 25 0.0 3.0 0.00 0.00 0.00 29 1012.1
20260508022848 64 310 0.0 2.0 0.00 0.00 0.00 28 1011.9
20260508022344 65 67 2.0 2.0 0.00 0.00 0.00 29 1011.7
20260508021841 66 89 0.0 2.0 0.00 0.00 0.00 29 1011.8
20260508021337 67 352 0.0 1.0 0.00 0.00 0.00 25 1011.6
20260508020833 67 43 1.0 2.0 0.00 0.00 0.00 26 1011.5
20260508020331 68 13 0.0 1.0 0.00 0.00 0.00 26 1011.5
20260508015828 69 245 2.0 2.0 0.00 0.00 0.00 23 1011.5
20260508015326 69 320 1.0 2.0 0.00 0.00 0.00 25 1011.4
20260508014822 69 326 0.0 3.0 0.00 0.00 0.00 24 1011.5
20260508014320 70 199 0.0 2.0 0.00 0.00 0.00 23 1011.5
20260508013815 70 257 2.0 4.0 0.00 0.00 0.00 24 1011.5
20260508013311 69 290 0.0 3.0 0.00 0.00 0.00 25 1011.4
20260508012809 70 259 3.0 3.0 0.00 0.00 0.00 24 1011.2
20260508012301 70 183 1.0 3.0 0.00 0.00 0.00 23 1011.6
20260508011758 71 173 0.0 3.0 0.00 0.00 0.00 24 1011.4
20260508011256 70 298 2.0 4.0 0.00 0.00 0.00 24 1011.5
20260508010752 71 274 4.0 4.0 0.00 0.00 0.00 23 1011.2
20260508010251 72 266 3.0 5.0 0.00 0.00 0.00 24 1011.2
20260508005747 72 237 3.0 6.0 0.00 0.00 0.00 23 1011.5
20260508005244 73 257 2.0 8.0 0.00 0.00 0.00 23 1011.1
20260508004739 74 192 0.0 4.0 0.00 0.00 0.00 23 1010.8
20260508004236 74 321 3.0 4.0 0.00 0.00 0.00 24 1011.2
20260508003733 75 306 5.0 5.0 0.00 0.00 0.00 21 1011.2
20260508003230 75 171 3.0 5.0 0.00 0.00 0.00 23 1011.1
20260508002727 75 289 5.0 9.0 0.00 0.00 0.00 21 1011.1
20260508002224 76 138 5.0 7.0 0.00 0.00 0.00 21 1011.2
20260508001720 76 284 3.0 5.0 0.00 0.00 0.00 22 1011.2
20260508001215 76 253 3.0 7.0 0.00 0.00 0.00 22 1011.0
20260508000712 77 320 2.0 5.0 0.00 0.00 0.00 21 1011.1
20260508000212 77 171 3.0 4.0 0.00 0.00 0.00 22 1011.2
20260507235705 77 260 2.0 7.0 0.00 0.00 0.00 22 1011.1
20260507235203 77 233 4.0 7.0 0.00 0.00 0.00 21 1011.1
20260507234700 76 215 6.0 6.0 0.00 0.00 0.00 21 1011.2
20260507234156 76 301 2.0 6.0 0.00 0.00 0.00 24 1011.4
20260507233653 78 296 3.0 6.0 0.00 0.00 0.00 22 1011.4
20260507233151 78 255 3.0 5.0 0.00 0.00 0.00 22 1011.2
20260507232648 79 225 6.0 8.0 0.00 0.00 0.00 21 1011.2
20260507232145 78 244 4.0 6.0 0.00 0.00 0.00 21 1011.5
20260507231641 79 297 4.0 6.0 0.00 0.00 0.00 23 1011.2
20260507231139 79 229 2.0 4.0 0.00 0.00 0.00 20 1011.4
20260507230635 80 285 2.0 5.0 0.00 0.00 0.00 21 1011.4
20260507230132 79 255 4.0 11.0 0.00 0.00 0.00 21 1011.6
20260507225626 79 193 7.0 8.0 0.00 0.00 0.00 20 1011.7
20260507225123 79 236 2.0 5.0 0.00 0.00 0.00 22 1011.6
20260507224619 79 272 4.0 7.0 0.00 0.00 0.00 20 1011.6
20260507224116 80 290 2.0 4.0 0.00 0.00 0.00 20 1011.6
20260507223612 80 195 1.0 6.0 0.00 0.00 0.00 20 1011.8
20260507223109 80 204 2.0 4.0 0.00 0.00 0.00 19 1011.8
20260507222606 80 253 4.0 5.0 0.00 0.00 0.00 21 1012.1
20260507222102 79 268 2.0 6.0 0.00 0.00 0.00 21 1012.1
20260507221558 80 251 2.0 5.0 0.00 0.00 0.00 19 1012.2
20260507221055 78 239 4.0 7.0 0.00 0.00 0.00 21 1012.3
20260507220552 79 182 4.0 13.0 0.00 0.00 0.00 20 1012.2
20260507220050 78 259 5.0 7.0 0.00 0.00 0.00 22 1012.3
20260507215546 79 238 4.0 5.0 0.00 0.00 0.00 21 1012.5
20260507215044 79 272 4.0 5.0 0.00 0.00 0.00 24 1013.0